[[{"header":{"parameterUnit":"m.s-1","parameterCategory":2,"la1":30.2991,"la2":30.254,"lo1":-89.0895,"lo2":-89.0444,"dy":0.0017,"dx":0.0017,"nx":28,"ny":28,"refTime":"2023-07-31T21:00:00:Z","depth":"0","parameterNumber":2,"parameterNumberName":"U-component_of_CURRENTS"},"data":[0,0,0,0,0,0,0,0,0,0,0,0,0,0,0,0,0,0,0,0,0,0,0,0,0,0,0,0,0,0,0,0,0,0,0,0,0,0,0,0,0,0,0,0,0,0,0,0,0,0,0,0,0,0,0,0,0,0,0.3409,0.341,0,0.3491,0.3492,0.3492,0.3488,0.3487,0.3486,0.3485,0.3489,0.3491,0.3492,0,0,0,0,0,0,0,0,0,0,0,0,0,0.3284,0.3286,0.3409,0.341,0.3411,0.3491,0.3492,0.3493,0.3488,0.3487,0.3486,0.3485,0.3489,0.349,0.3492,0,0,0,0,0,0,0,0,0,0,0,0,0,0.3348,0.3287,0.3409,0.342,0.3422,0.3491,0.3492,0.3493,0.3489,0.3487,0.3486,0.3484,0.3489,0.349,0.3492,0.3533,0,0,0.3497,0.3497,0,0,0,0,0,0,0,0,0.3344,0.3352,0.3417,0.3419,0.3422,0.3479,0.3449,0.3503,0.3489,0.3462,0.3485,0.3483,0.3481,0.3483,0.3501,0.3533,0.3533,0.3497,0.3498,0.3499,0.3499,0,0,0,0,0,0,0,0.3339,0.3349,0.344,0.3418,0.3421,0.3433,0.344,0.346,0.3476,0.3464,0.3464,0.3476,0.3481,0.3499,0.3501,0.3533,0.3497,0.3498,0.3499,0.35,0.3673,0.3676,0,0,0,0,0,0,0.3333,0.3345,0.3437,0.3442,0.338,0.3436,0.3444,0.3461,0.3478,0.348,0.3478,0.3476,0.3497,0.3499,0.3501,0.3592,0.3499,0.35,0.3501,0.3669,0.3674,0.3678,0,0,0,0,0,0,0.333,0.3341,0.3434,0.3396,0.3409,0.344,0.3459,0.3463,0.3485,0.3489,0.3489,0.3496,0.3496,0.3498,0.3539,0.359,0.3501,0.3502,0.3665,0.3671,0.3676,0.3748,0,0,0,0,0,0,0.3326,0.3339,0.3352,0.3396,0.3411,0.3482,0.3461,0.3466,0.3496,0.3494,0.3505,0.3504,0.3495,0.3537,0.3541,0.3591,0.3504,0.366,0.3668,0.3674,0.3741,0.3755,0.3767,0,0,0,0,0,0.3322,0.3343,0.3352,0.3364,0.3427,0.3484,0.3493,0.3508,0.3498,0.3519,0.3533,0.3503,0.3584,0.3541,0.3545,0.3596,0.3657,0.3666,0.3673,0.3735,0.3752,0.3767,0,0,0,0,0,0,0.329,0.3346,0.3357,0.3393,0.3439,0.3483,0.3505,0.3518,0.3549,0.3544,0.3539,0.3541,0.3602,0.3598,0.3551,0.3673,0.3621,0.363,0.3667,0.3683,0.3696,0.3736,0.3505,0,0,0,0,0,0.3293,0.3327,0.3379,0.3411,0.3433,0.3472,0.3497,0.3514,0.3547,0.3558,0.3568,0.3595,0.3643,0.3656,0.3689,0.3745,0.3853,0.3788,0.3801,0.3812,0.3852,0.4146,0.4191,0.3704,0.3704,0.3704,0,0,0.3287,0.3326,0.3342,0.3407,0.344,0.3496,0.3483,0.353,0.3578,0.3554,0.3613,0.3637,0.367,0.374,0.3768,0.3737,0.3991,0.3823,0.3831,0.3866,0.4159,0.4207,0.425,0.371,0.3709,0.3708,0,0,0.3309,0.3331,0.3374,0.3415,0.3478,0.3513,0.353,0.3585,0.3607,0.3663,0.3682,0.3761,0.3777,0.3858,0.3888,0.4004,0.4056,0.3986,0.4078,0.4362,0.4406,0.4446,0.4574,0.4626,0.3989,0.3989,0.3989,0,0.3307,0.3383,0.3394,0.3451,0.3504,0.3525,0.3598,0.3625,0.3686,0.3763,0.3683,0.3865,0.3856,0.404,0.4046,0.4039,0.4156,0.4003,0.4384,0.4426,0.4466,0.459,0.4645,0.3993,0.3993,0.3992,0.3992,0,0.3377,0.3436,0.3465,0.3553,0.3593,0.3668,0.3708,0.3769,0.3786,0.3851,0.4007,0.4024,0.4163,0.4148,0.41,0.4378,0.435,0.4372,0.4345,0.4521,0.4636,0.4693,0.4,0.3998,0.3997,0.3996,0,0,0.3425,0.3506,0.3519,0.3597,0.3671,0.373,0.3809,0.3956,0.4078,0.4109,0.4293,0.4345,0.4399,0.4441,0.4441,0.4613,0.4916,0.4583,0.4596,0.471,0.5463,0.5315,0.5361,0.5023,0.5035,0.5044,0.5405,0,0.3513,0.3636,0.3643,0.3785,0.3886,0.3921,0.4007,0.4122,0.4204,0.437,0.4458,0.4597,0.45,0.4561,0.4744,0.4868,0.5082,0.4811,0.5277,0.5289,0.5142,0.5431,0.5262,0.5563,0.546,0.547,0.5477,0,0.3637,0.3712,0.3842,0.3985,0.4024,0.4088,0.4299,0.4372,0.4582,0.4646,0.4832,0.4883,0.5099,0.4993,0.5398,0.5229,0.538,0.5463,0.5482,0.5373,0.5253,0.5389,0.567,0.5428,0.5564,0.5557,0.5551,0,0.3763,0.3885,0.4002,0.4045,0.4169,0.4249,0.4325,0.4501,0.4579,0.4852,0.4935,0.5233,0.5328,0.5621,0.5692,0.562,0.6109,0.6066,0.6099,0.6083,0.6048,0.601,0.6166,0.6489,0.6489,0.6488,0.6487,0,0.392,0.4027,0.4073,0.4148,0.4291,0.4354,0.4517,0.4637,0.4804,0.4929,0.5092,0.5223,0.5499,0.5726,0.5867,0.6117,0.6304,0.6197,0.6237,0.605,0.601,0.5878,0.5726,0.6501,0.6498,0.6495,0.6493,0,0.4047,0.4084,0.4221,0.4326,0.4352,0.4453,0.4526,0.4633,0.4804,0.4968,0.5042,0.5289,0.5582,0.5803,0.6229,0.6295,0.6397,0.6631,0.6283,0.6276,0.6037,0.5893,0.5999,0.5817,0.6792,0.6792,0.6791,0,0.4114,0.4207,0.4287,0.4297,0.433,0.4437,0.4474,0.4624,0.4702,0.4973,0.5044,0.5356,0.5513,0.6011,0.6276,0.6606,0.6386,0.6604,0.6471,0.6072,0.5948,0.5702,0.5521,0.6431,0.6427,0.6425,0.6423,0,0.4205,0.4221,0.4256,0.4287,0.4315,0.4347,0.4423,0.4464,0.4637,0.4776,0.4954,0.5109,0.5579,0.5822,0.6219,0.6408,0.6237,0.6554,0.6345,0.5865,0.5427,0.5247,0.6007,0.6398,0.6401,0.6403,0.6404,0.6405,0.4173,0.4187,0.4176,0.4203,0.4211,0.4186,0.4163,0.4242,0.4315,0.4461,0.4755,0.4962,0.5412,0.5944,0.6046,0.6116,0.6093,0.6045,0.596,0.5788,0.5448,0.6048,0.6337,0.6339,0.6341,0.6342,0.6344,0,0.4058,0.4053,0.4073,0.4023,0.396,0.4036,0.4041,0.3987,0.3979,0.4258,0.4419,0.4881,0.5124,0.5446,0.573,0.5583,0.5383,0.5414,0.5068,0.4964,0.5736,0.5545,0.5429,0.5429,0.5429,0.5429,0.5429,0.543,0.396,0.39,0.3916,0.3752,0.3721,0.3576,0.3539,0.3522,0.3655,0.3828,0.4095,0.4428,0.4892,0.5215,0.5149,0.5044,0.4612,0.4467,0.4364,0.4896,0.4946,0.4994,0.4782,0.4507,0.4506,0.3469,0.346,0.3454]},{"header":{"parameterUnit":"m.s-1","parameterCategory":2,"la1":30.2991,"la2":30.254,"lo1":-89.0895,"lo2":-89.0444,"dy":0.0017,"dx":0.0017,"nx":28,"ny":28,"refTime":"2023-07-31T21:00:00:Z","depth":"0","parameterNumber":3,"parameterNumberName":"V-component_of_CURRENTS"},"data":[0,0,0,0,0,0,0,0,0,0,0,0,0,0,0,0,0,0,0,0,0,0,0,0,0,0,0,0,0,0,0,0,0,0,0,0,0,0,0,0,0,0,0,0,0,0,0,0,0,0,0,0,0,0,0,0,0,0,-0.039,-0.0391,0,-0.0466,-0.0467,-0.0468,-0.0516,-0.0516,-0.0516,-0.0516,-0.0615,-0.0617,-0.062,0,0,0,0,0,0,0,0,0,0,0,0,0,-0.03,-0.0301,-0.039,-0.0391,-0.0392,-0.0466,-0.0467,-0.0469,-0.0516,-0.0516,-0.0516,-0.0516,-0.0614,-0.0617,-0.062,0,0,0,0,0,0,0,0,0,0,0,0,0,-0.0356,-0.0302,-0.039,-0.0422,-0.0425,-0.0466,-0.0467,-0.0469,-0.0516,-0.0516,-0.0516,-0.0516,-0.0613,-0.0617,-0.0621,-0.0645,0,0,-0.0633,-0.0634,0,0,0,0,0,0,0,0,-0.0353,-0.036,-0.0417,-0.042,-0.0424,-0.0479,-0.0472,-0.0528,-0.0516,-0.0484,-0.0516,-0.0516,-0.057,-0.0577,-0.0595,-0.065,-0.0654,-0.0633,-0.0635,-0.0637,-0.0638,0,0,0,0,0,0,0,-0.0349,-0.0357,-0.0423,-0.0417,-0.0421,-0.0437,-0.0445,-0.0483,-0.0529,-0.0487,-0.049,-0.0494,-0.0572,-0.0591,-0.0598,-0.0655,-0.0633,-0.0636,-0.0639,-0.064,-0.0648,-0.0646,0,0,0,0,0,0,-0.0334,-0.0353,-0.0421,-0.0425,-0.0384,-0.0438,-0.0448,-0.0464,-0.0528,-0.0537,-0.0494,-0.0496,-0.0584,-0.0593,-0.0601,-0.0529,-0.0637,-0.0641,-0.0643,-0.065,-0.0647,-0.0645,0,0,0,0,0,0,-0.0332,-0.0339,-0.0418,-0.0388,-0.0399,-0.0439,-0.0457,-0.0465,-0.0477,-0.0532,-0.0542,-0.0497,-0.0585,-0.0596,-0.0629,-0.0537,-0.0643,-0.0646,-0.0652,-0.0649,-0.0646,-0.0451,0,0,0,0,0,0,-0.0329,-0.0339,-0.0342,-0.0387,-0.04,-0.043,-0.0457,-0.0466,-0.0479,-0.0482,-0.0538,-0.0548,-0.0586,-0.0622,-0.0632,-0.0544,-0.0649,-0.0655,-0.0651,-0.0647,-0.046,-0.0442,-0.0426,0,0,0,0,0,-0.0326,-0.0329,-0.0342,-0.035,-0.0405,-0.0429,-0.0437,-0.0468,-0.0479,-0.048,-0.052,-0.0546,-0.0601,-0.0625,-0.0637,-0.0548,-0.0657,-0.0652,-0.0647,-0.0468,-0.0445,-0.0426,0,0,0,0,0,0,-0.0286,-0.0335,-0.0351,-0.0368,-0.039,-0.0436,-0.0439,-0.046,-0.0493,-0.0494,-0.0548,-0.056,-0.0547,-0.059,-0.0615,-0.0539,-0.0621,-0.0619,-0.0481,-0.046,-0.0443,-0.0306,-0.0653,0,0,0,0,0,-0.028,-0.0297,-0.0339,-0.0347,-0.0358,-0.0396,-0.0409,-0.0428,-0.0462,-0.0477,-0.0516,-0.0541,-0.0537,-0.0537,-0.0567,-0.0543,-0.0496,-0.0486,-0.0469,-0.0453,-0.035,-0.0179,-0.0134,-0.0629,-0.0629,-0.0629,0,0,-0.0266,-0.0292,-0.0302,-0.0339,-0.0361,-0.0345,-0.0404,-0.0415,-0.0376,-0.0483,-0.0458,-0.0501,-0.0525,-0.0489,-0.0481,-0.051,-0.0314,-0.0447,-0.0433,-0.0336,-0.0169,-0.0119,-0.0075,-0.0625,-0.0626,-0.0626,0,0,-0.0216,-0.027,-0.025,-0.0266,-0.0288,-0.0312,-0.0308,-0.035,-0.0343,-0.0355,-0.0377,-0.0338,-0.0419,-0.034,-0.0326,-0.0227,-0.0241,-0.0276,-0.0053,0.011,0.0155,0.0196,0.0222,0.0264,-0.0248,-0.0247,-0.0247,0,-0.0182,-0.0152,-0.0245,-0.0219,-0.0184,-0.0284,-0.0211,-0.024,-0.028,-0.0207,-0.0329,-0.0252,-0.0305,-0.0109,-0.0086,-0.0168,-0.0141,-0.0131,0.0143,0.0185,0.0224,0.0242,0.0286,-0.0238,-0.0239,-0.024,-0.0241,0,-0.0096,-0.007,-0.0058,-0.0045,-0.0048,-0.0005,-0.0043,-0.003,-0.0061,-0.0047,0.0077,0.0018,0.0112,0.0077,0.0011,0.0284,0.0184,0.0134,0.011,0.0287,0.029,0.0333,-0.0223,-0.0227,-0.023,-0.0232,0,0,0.0045,0.002,0.0038,0.0117,0.0077,0.0116,0.0161,0.0261,0.0398,0.0317,0.0541,0.0522,0.0527,0.0551,0.0508,0.0632,0.0849,0.0506,0.0509,0.0568,0.1125,0.0912,0.0934,0.0844,0.0855,0.0863,0.0984,0,0.0196,0.0308,0.0248,0.0404,0.0493,0.0435,0.0518,0.0572,0.0593,0.0744,0.0764,0.0893,0.0695,0.0774,0.0874,0.0879,0.0986,0.0817,0.0918,0.0921,0.0744,0.099,0.0898,0.099,0.1025,0.1032,0.1037,0,0.0379,0.0439,0.0608,0.0735,0.0772,0.0833,0.1039,0.1093,0.1227,0.1256,0.1381,0.1352,0.1538,0.1321,0.1479,0.137,0.1296,0.1253,0.1255,0.1056,0.0795,0.0835,0.1065,0.0632,0.1102,0.1096,0.1092,0,0.0642,0.0739,0.0909,0.094,0.1012,0.113,0.1184,0.1297,0.1417,0.1625,0.1741,0.1882,0.1982,0.1974,0.1787,0.1684,0.191,0.1755,0.1494,0.147,0.1424,0.1379,0.1307,0.1931,0.1931,0.1931,0.193,0,0.089,0.104,0.1054,0.1158,0.139,0.1378,0.1645,0.1701,0.1871,0.2074,0.2051,0.2242,0.2161,0.2198,0.2007,0.1878,0.2086,0.1634,0.1561,0.1463,0.1424,0.1062,0.0884,0.1935,0.1934,0.1933,0.1933,0,0.1137,0.1153,0.1348,0.146,0.1513,0.1675,0.1831,0.2011,0.2145,0.2418,0.25,0.2599,0.2643,0.2471,0.246,0.216,0.184,0.194,0.1743,0.1647,0.0936,0.0773,0.0793,0.0657,0.1724,0.172,0.1718,0,0.1263,0.139,0.1533,0.1615,0.1665,0.1869,0.1996,0.2137,0.231,0.2617,0.2776,0.2907,0.2995,0.2832,0.2416,0.2105,0.1786,0.1721,0.1533,0.0979,0.0748,0.064,0.0518,0.1502,0.1498,0.1494,0.1491,0,0.1476,0.1514,0.162,0.1783,0.1931,0.2116,0.2317,0.2497,0.2695,0.2913,0.3194,0.3314,0.3139,0.2819,0.2326,0.2042,0.1416,0.1627,0.1212,0.0746,0.0495,0.0294,0.1212,0.1459,0.1463,0.1465,0.1467,0.1468,0.1574,0.1663,0.1766,0.1927,0.2097,0.2335,0.2507,0.2732,0.3022,0.335,0.3455,0.3658,0.3112,0.2457,0.2027,0.1025,0.117,0.0676,0.0572,0.0546,0.0305,0.1062,0.1107,0.1108,0.1109,0.111,0.111,0,0.1643,0.173,0.1885,0.2079,0.2267,0.2354,0.268,0.286,0.3178,0.3503,0.3721,0.3558,0.2801,0.2047,0.0765,0.0079,-0.009,-0.0293,-0.0437,-0.0472,0.0341,0.0203,-0.0135,-0.0135,-0.0134,-0.0134,-0.0134,-0.0133,0.1672,0.1798,0.1878,0.2172,0.232,0.2595,0.278,0.3058,0.3336,0.367,0.3812,0.3941,0.3252,0.0999,-0.0589,-0.0911,-0.1312,-0.1386,-0.1545,-0.1072,-0.0991,-0.0914,-0.1091,-0.1694,-0.1696,-0.2325,-0.2332,-0.2337]}],[{"header":{"parameterUnit":"m.s-1","parameterCategory":2,"la1":30.2991,"la2":30.254,"lo1":-89.0895,"lo2":-89.0444,"dy":0.0017,"dx":0.0017,"nx":28,"ny":28,"refTime":"2023-07-31T21:00:00:Z","depth":"2","parameterNumber":2,"parameterNumberName":"U-component_of_CURRENTS"},"data":[0,0,0,0,0,0,0,0,0,0,0,0,0,0,0,0,0,0,0,0,0,0,0,0,0,0,0,0,0,0,0,0,0,0,0,0,0,0,0,0,0,0,0,0,0,0,0,0,0,0,0,0,0,0,0,0,0,0,0.287,0.2867,0,0.2827,0.2829,0.2831,0.2909,0.2909,0.2909,0.2909,0.2954,0.2955,0.2956,0,0,0,0,0,0,0,0,0,0,0,0,0,0.2859,0.2862,0.287,0.2867,0.2864,0.2827,0.2829,0.2831,0.2909,0.2909,0.2909,0.2909,0.2953,0.2955,0.2956,0,0,0,0,0,0,0,0,0,0,0,0,0,0.2872,0.2863,0.2871,0.2877,0.2875,0.2826,0.2829,0.2832,0.2909,0.2909,0.2909,0.2909,0.2953,0.2954,0.2956,0.2968,0,0,0.2962,0.2962,0,0,0,0,0,0,0,0,0.2872,0.2877,0.288,0.2876,0.2874,0.2848,0.2839,0.2871,0.2909,0.2927,0.2909,0.2909,0.2907,0.2913,0.2945,0.297,0.2972,0.2962,0.2963,0.2964,0.2964,0,0,0,0,0,0,0,0.2871,0.2877,0.2883,0.2875,0.2872,0.2824,0.2831,0.2847,0.2942,0.2926,0.2924,0.2873,0.2911,0.2943,0.2946,0.2972,0.2962,0.2963,0.2964,0.2965,0.3185,0.3189,0,0,0,0,0,0,0.2827,0.2878,0.2883,0.2878,0.284,0.2823,0.2832,0.288,0.294,0.294,0.2873,0.2876,0.294,0.2944,0.2948,0.3099,0.2964,0.2965,0.2966,0.318,0.3186,0.3191,0,0,0,0,0,0,0.2829,0.2833,0.2885,0.2847,0.2847,0.2822,0.2876,0.2878,0.2923,0.2893,0.2902,0.2911,0.294,0.2945,0.3002,0.3095,0.2966,0.2968,0.3174,0.3182,0.3188,0.3314,0,0,0,0,0,0,0.2832,0.2837,0.2882,0.2848,0.2846,0.2894,0.2872,0.2877,0.2876,0.2882,0.2928,0.2932,0.2941,0.3,0.3004,0.3095,0.2969,0.3168,0.3178,0.3186,0.3304,0.3324,0.3342,0,0,0,0,0,0.2833,0.289,0.2888,0.2885,0.2906,0.2893,0.2896,0.289,0.2877,0.2929,0.2954,0.2931,0.3061,0.3004,0.3008,0.3102,0.3164,0.3175,0.3185,0.3295,0.332,0.3342,0,0,0,0,0,0,0.291,0.2899,0.2897,0.2952,0.2931,0.2896,0.2936,0.2898,0.296,0.2973,0.2964,0.2973,0.3071,0.3065,0.3002,0.3199,0.312,0.3132,0.3203,0.3226,0.3245,0.3255,0.2971,0,0,0,0,0,0.2938,0.297,0.295,0.2975,0.3009,0.2976,0.297,0.2949,0.2958,0.2988,0.2999,0.3045,0.3119,0.3149,0.3201,0.3278,0.3279,0.3354,0.3374,0.3389,0.3406,0.3504,0.3533,0.3226,0.3226,0.3226,0,0,0.2928,0.2944,0.2942,0.2987,0.3007,0.3038,0.2989,0.2994,0.3018,0.2979,0.307,0.3102,0.3154,0.327,0.3314,0.3273,0.3476,0.3403,0.3416,0.3424,0.3519,0.3548,0.3574,0.3233,0.3232,0.3231,0,0,0.2956,0.3015,0.3076,0.3086,0.3091,0.3079,0.308,0.3076,0.3125,0.3168,0.3181,0.3257,0.3332,0.3403,0.3447,0.3596,0.3573,0.3631,0.3733,0.3829,0.3855,0.3877,0.3893,0.3916,0.3641,0.3641,0.3641,0,0.2958,0.3052,0.3076,0.3151,0.3149,0.3107,0.3158,0.3197,0.3184,0.3248,0.3222,0.3398,0.3408,0.3585,0.3642,0.364,0.3666,0.3633,0.3852,0.3874,0.3895,0.3906,0.3929,0.3648,0.3648,0.3647,0.3646,0,0.3045,0.311,0.316,0.3246,0.3259,0.3286,0.3311,0.3373,0.339,0.3397,0.3569,0.361,0.3716,0.375,0.3734,0.3918,0.3877,0.3859,0.3782,0.3933,0.3935,0.3957,0.3659,0.3656,0.3654,0.3652,0,0,0.3076,0.3198,0.3217,0.3267,0.3313,0.3324,0.3437,0.3531,0.3612,0.3669,0.3801,0.3937,0.3948,0.4,0.4018,0.409,0.4222,0.4041,0.4042,0.4035,0.4399,0.4262,0.4271,0.4254,0.4259,0.4264,0.4331,0,0.3151,0.3279,0.3324,0.3398,0.347,0.3501,0.3594,0.3655,0.3729,0.3844,0.3959,0.4066,0.4054,0.4106,0.4199,0.4214,0.4293,0.4203,0.4273,0.4273,0.4118,0.4298,0.3972,0.3998,0.4352,0.4356,0.4358,0,0.3243,0.3317,0.3414,0.3507,0.3557,0.3577,0.373,0.3802,0.3965,0.4042,0.4194,0.4237,0.439,0.4328,0.4498,0.4448,0.4448,0.4445,0.4448,0.4294,0.418,0.3914,0.4024,0.4394,0.4391,0.4389,0.4386,0,0.3236,0.3379,0.345,0.3471,0.3574,0.3654,0.372,0.3858,0.3955,0.4148,0.4228,0.4418,0.4503,0.4589,0.4593,0.4565,0.4723,0.4676,0.4563,0.4549,0.4271,0.4224,0.4808,0.4808,0.4808,0.4808,0.4808,0,0.3273,0.333,0.345,0.3475,0.3571,0.3654,0.3771,0.389,0.4051,0.4157,0.4314,0.4435,0.4577,0.467,0.4665,0.4685,0.4801,0.4618,0.4592,0.4302,0.426,0.4598,0.4572,0.481,0.481,0.4809,0.4809,0,0.3194,0.329,0.3364,0.3504,0.3548,0.3599,0.3746,0.3838,0.4018,0.4168,0.4233,0.447,0.4612,0.4702,0.4807,0.4756,0.4775,0.4742,0.4351,0.428,0.4511,0.4492,0.4649,0.4645,0.4642,0.464,0.4637,0,0.3139,0.3175,0.3323,0.3361,0.3411,0.3512,0.3581,0.3779,0.3871,0.4171,0.4235,0.4452,0.4534,0.4653,0.4632,0.4625,0.4736,0.4303,0.4203,0.4553,0.4512,0.4497,0.4483,0.3866,0.3858,0.3851,0.3846,0,0.3011,0.3076,0.3136,0.3225,0.3296,0.3387,0.3512,0.3585,0.3832,0.3951,0.4134,0.422,0.4383,0.4254,0.4271,0.4223,0.428,0.4164,0.4688,0.3954,0.3821,0.3778,0.3789,0.3786,0.3792,0.3796,0.38,0.3802,0.2884,0.2891,0.2989,0.3066,0.3158,0.3251,0.329,0.341,0.3517,0.3635,0.3834,0.3833,0.393,0.3784,0.3705,0.3688,0.396,0.3795,0.3814,0.3841,0.3736,0.3606,0.3506,0.351,0.3514,0.3517,0.352,0,0.271,0.2771,0.2827,0.2929,0.2978,0.3101,0.3229,0.3206,0.3241,0.3311,0.3341,0.3081,0.3035,0.3179,0.3055,0.3062,0.3017,0.2966,0.2889,0.2952,0.3007,0.2857,0.2395,0.2391,0.2387,0.2384,0,0,0.2616,0.2626,0.2683,0.2726,0.2816,0.2848,0.2906,0.2857,0.2865,0.2668,0.2608,0.2762,0.3009,0.2607,0.261,0.2485,0.2679,0.2394,0.3302,0.327,0.3319,0.3504,0.3347,0,0,0,0,0]},{"header":{"parameterUnit":"m.s-1","parameterCategory":2,"la1":30.2991,"la2":30.254,"lo1":-89.0895,"lo2":-89.0444,"dy":0.0017,"dx":0.0017,"nx":28,"ny":28,"refTime":"2023-07-31T21:00:00:Z","depth":"2","parameterNumber":3,"parameterNumberName":"V-component_of_CURRENTS"},"data":[0,0,0,0,0,0,0,0,0,0,0,0,0,0,0,0,0,0,0,0,0,0,0,0,0,0,0,0,0,0,0,0,0,0,0,0,0,0,0,0,0,0,0,0,0,0,0,0,0,0,0,0,0,0,0,0,0,0,-0.0242,-0.024,0,-0.0251,-0.0253,-0.0255,-0.038,-0.0381,-0.0382,-0.0382,-0.0558,-0.0562,-0.0566,0,0,0,0,0,0,0,0,0,0,0,0,0,-0.0319,-0.0319,-0.0242,-0.024,-0.0237,-0.0251,-0.0253,-0.0256,-0.038,-0.0381,-0.0382,-0.0383,-0.0557,-0.0561,-0.0566,0,0,0,0,0,0,0,0,0,0,0,0,0,-0.0326,-0.0319,-0.0242,-0.0283,-0.0285,-0.025,-0.0254,-0.0257,-0.0379,-0.0381,-0.0382,-0.0383,-0.0555,-0.0561,-0.0567,-0.0576,0,0,-0.0584,-0.0587,0,0,0,0,0,0,0,0,-0.0326,-0.0327,-0.0279,-0.0279,-0.0281,-0.0294,-0.0344,-0.0363,-0.0379,-0.037,-0.0382,-0.0384,-0.0468,-0.0481,-0.0513,-0.0584,-0.0592,-0.0585,-0.0588,-0.0591,-0.0592,0,0,0,0,0,0,0,-0.0325,-0.0326,-0.0271,-0.0276,-0.0277,-0.0294,-0.03,-0.0349,-0.0434,-0.0371,-0.0373,-0.0335,-0.0474,-0.0507,-0.0518,-0.0594,-0.0585,-0.059,-0.0593,-0.0596,-0.0832,-0.0835,0,0,0,0,0,0,-0.0273,-0.0326,-0.027,-0.0269,-0.0279,-0.029,-0.0297,-0.0309,-0.043,-0.0441,-0.0333,-0.034,-0.0496,-0.0511,-0.0524,-0.0619,-0.0591,-0.0596,-0.0599,-0.0829,-0.0833,-0.0836,0,0,0,0,0,0,-0.0276,-0.0271,-0.0269,-0.0275,-0.0273,-0.0285,-0.0298,-0.0308,-0.0341,-0.0395,-0.0415,-0.0353,-0.0498,-0.0516,-0.0575,-0.0624,-0.0599,-0.0604,-0.0826,-0.083,-0.0834,-0.0759,0,0,0,0,0,0,-0.028,-0.0273,-0.0292,-0.0273,-0.0269,-0.0251,-0.0294,-0.0306,-0.0302,-0.0312,-0.0417,-0.0435,-0.05,-0.0566,-0.0581,-0.0631,-0.0609,-0.0822,-0.0828,-0.0833,-0.0758,-0.0761,-0.0762,0,0,0,0,0,-0.0283,-0.0282,-0.0295,-0.0287,-0.0288,-0.0247,-0.0252,-0.0279,-0.0301,-0.0319,-0.0388,-0.0432,-0.0613,-0.0571,-0.0588,-0.0642,-0.082,-0.0826,-0.0832,-0.0757,-0.076,-0.0762,0,0,0,0,0,0,-0.032,-0.0291,-0.0306,-0.0298,-0.0272,-0.0259,-0.0273,-0.0268,-0.0337,-0.0355,-0.0432,-0.0455,-0.054,-0.0597,-0.0548,-0.0735,-0.0739,-0.0748,-0.0676,-0.0679,-0.0681,-0.0628,-0.0613,0,0,0,0,0,-0.033,-0.0321,-0.0294,-0.0276,-0.0286,-0.0282,-0.0274,-0.0269,-0.0293,-0.0326,-0.0386,-0.0482,-0.0581,-0.0626,-0.0711,-0.0778,-0.0804,-0.0842,-0.0843,-0.0844,-0.0819,-0.087,-0.0871,-0.0856,-0.0856,-0.0856,0,0,-0.0312,-0.0303,-0.0288,-0.0281,-0.0292,-0.0272,-0.0291,-0.0262,-0.0267,-0.0332,-0.0399,-0.0475,-0.0599,-0.0695,-0.0742,-0.0744,-0.0873,-0.0852,-0.0851,-0.0825,-0.0876,-0.0876,-0.0877,-0.0861,-0.086,-0.0859,0,0,-0.0286,-0.0305,-0.0313,-0.029,-0.0265,-0.0253,-0.0235,-0.0228,-0.0285,-0.0312,-0.0396,-0.0474,-0.0603,-0.0699,-0.077,-0.0828,-0.0876,-0.089,-0.0854,-0.0904,-0.0903,-0.0903,-0.0959,-0.0964,-0.0895,-0.0895,-0.0894,0,-0.029,-0.0295,-0.0298,-0.0296,-0.0275,-0.024,-0.0234,-0.026,-0.0261,-0.032,-0.0332,-0.0509,-0.061,-0.0729,-0.0776,-0.0829,-0.0859,-0.0823,-0.0898,-0.0899,-0.09,-0.0956,-0.0963,-0.0892,-0.0892,-0.0892,-0.0893,0,-0.0271,-0.0273,-0.0271,-0.027,-0.0248,-0.0216,-0.0221,-0.0244,-0.0279,-0.0301,-0.0411,-0.0505,-0.0599,-0.0682,-0.0754,-0.0838,-0.0859,-0.0882,-0.0868,-0.0895,-0.0956,-0.0963,-0.0888,-0.0889,-0.089,-0.089,0,0,-0.0317,-0.0278,-0.0284,-0.0278,-0.0236,-0.0204,-0.024,-0.0281,-0.0305,-0.034,-0.0385,-0.0561,-0.0559,-0.0637,-0.0717,-0.0783,-0.0847,-0.0832,-0.0837,-0.0844,-0.0955,-0.0857,-0.0857,-0.0868,-0.0869,-0.0869,-0.0999,0,-0.0336,-0.031,-0.0298,-0.0253,-0.0247,-0.0238,-0.0257,-0.0269,-0.0318,-0.0341,-0.0441,-0.0495,-0.0558,-0.0584,-0.0648,-0.0783,-0.0861,-0.0809,-0.0965,-0.0969,-0.0842,-0.086,-0.082,-0.0921,-0.1007,-0.1009,-0.101,0,-0.0369,-0.0339,-0.0315,-0.0268,-0.0277,-0.0232,-0.0262,-0.0266,-0.0309,-0.0355,-0.0375,-0.0404,-0.0477,-0.052,-0.0693,-0.0649,-0.0796,-0.0906,-0.0913,-0.084,-0.0884,-0.0911,-0.0932,-0.1023,-0.1022,-0.1021,-0.102,0,-0.0402,-0.0369,-0.0347,-0.0317,-0.0251,-0.0277,-0.0252,-0.0281,-0.0296,-0.0318,-0.0298,-0.0358,-0.0373,-0.0509,-0.0667,-0.0698,-0.0846,-0.0924,-0.0983,-0.0979,-0.0983,-0.0975,-0.1075,-0.1074,-0.1074,-0.1074,-0.1073,0,-0.0428,-0.041,-0.0351,-0.0316,-0.0288,-0.0261,-0.0251,-0.0262,-0.024,-0.0187,-0.0256,-0.0188,-0.0374,-0.0446,-0.062,-0.0763,-0.0799,-0.0959,-0.0993,-0.096,-0.095,-0.1065,-0.1062,-0.1079,-0.1078,-0.1077,-0.1076,0,-0.0443,-0.0414,-0.0364,-0.0306,-0.0288,-0.0255,-0.0189,-0.0162,-0.0171,-0.0084,-0.0065,-0.0088,-0.0144,-0.0321,-0.0553,-0.07,-0.0864,-0.0935,-0.0867,-0.0887,-0.0999,-0.0992,-0.1033,-0.103,-0.1028,-0.1026,-0.1024,0,-0.0433,-0.0405,-0.0331,-0.0278,-0.0245,-0.0193,-0.0137,-0.012,-0.0053,0.0025,0.0108,0.0067,0.0148,-0.0115,-0.0404,-0.0662,-0.0762,-0.0849,-0.0906,-0.0959,-0.099,-0.0986,-0.0982,-0.0925,-0.0923,-0.0921,-0.092,0,-0.0378,-0.0362,-0.0305,-0.0204,-0.0134,-0.0056,0.0036,0.0118,0.0188,0.0326,0.0534,0.0607,0.0338,0.0155,-0.025,-0.0449,-0.0782,-0.0817,-0.09,-0.0897,-0.0855,-0.0885,-0.0887,-0.0903,-0.0905,-0.0906,-0.0907,-0.0908,-0.0322,-0.0267,-0.0186,-0.009,-0.0007,0.0131,0.0251,0.0423,0.0648,0.0902,0.0882,0.1005,0.0609,0.0194,-0.0157,-0.059,-0.0629,-0.0815,-0.0823,-0.0833,-0.0752,-0.0703,-0.071,-0.0711,-0.0711,-0.0712,-0.0712,0,-0.0207,-0.0149,-0.0057,0.0083,0.0216,0.0209,0.0417,0.0622,0.101,0.1176,0.1391,0.1114,0.0829,0.0377,-0.0237,-0.0603,-0.07,-0.0716,-0.0777,-0.0789,-0.0802,-0.0723,-0.0673,-0.0673,-0.0674,-0.0674,0,0,-0.0125,-0.001,0.004,0.0285,0.0373,0.0592,0.0738,0.1088,0.1288,0.1595,0.1641,0.1543,0.0974,0.055,0.0034,-0.0306,-0.0462,-0.0377,-0.0373,-0.0396,-0.0403,-0.0826,-0.0711,0,0,0,0,0]}],[{"header":{"parameterUnit":"m.s-1","parameterCategory":2,"la1":30.2991,"la2":30.254,"lo1":-89.0895,"lo2":-89.0444,"dy":0.0017,"dx":0.0017,"nx":28,"ny":28,"refTime":"2023-07-31T21:00:00:Z","depth":"4","parameterNumber":2,"parameterNumberName":"U-component_of_CURRENTS"},"data":[0,0,0,0,0,0,0,0,0,0,0,0,0,0,0,0,0,0,0,0,0,0,0,0,0,0,0,0,0,0,0,0,0,0,0,0,0,0,0,0,0,0,0,0,0,0,0,0,0,0,0,0,0,0,0,0,0,0,0.1349,0.1351,0,0.1465,0.1466,0.1467,0.1528,0.1528,0.1529,0.1529,0.1625,0.1627,0.1629,0,0,0,0,0,0,0,0,0,0,0,0,0,0.1225,0.1227,0.1349,0.1351,0.1353,0.1464,0.1466,0.1467,0.1528,0.1528,0.1529,0.1529,0.1624,0.1627,0.163,0,0,0,0,0,0,0,0,0,0,0,0,0,0.13,0.1227,0.1349,0.1399,0.1405,0.1464,0.1466,0.1467,0.1528,0.1528,0.1529,0.1529,0.1624,0.1627,0.163,0.1638,0,0,0.164,0.1641,0,0,0,0,0,0,0,0,0.1296,0.1304,0.139,0.1396,0.1402,0.1485,0.1457,0.1524,0.1528,0.1478,0.1529,0.153,0.1578,0.1585,0.1601,0.1642,0.1646,0.164,0.1642,0.1644,0.1644,0,0,0,0,0,0,0,0.1291,0.13,0.1392,0.1392,0.1399,0.1431,0.1441,0.147,0.152,0.1482,0.1488,0.1505,0.1581,0.1598,0.1604,0.1648,0.164,0.1643,0.1645,0.1646,0.1772,0.1773,0,0,0,0,0,0,0.128,0.1295,0.1388,0.1395,0.1353,0.1432,0.1444,0.1455,0.152,0.1532,0.1505,0.1508,0.1592,0.16,0.1607,0.1711,0.1643,0.1647,0.1648,0.1771,0.1772,0.1774,0,0,0,0,0,0,0.1277,0.1287,0.1383,0.1351,0.1366,0.1434,0.1446,0.1457,0.1509,0.1539,0.1549,0.1549,0.1593,0.1603,0.1656,0.1712,0.1648,0.1651,0.1769,0.1771,0.1773,0.186,0,0,0,0,0,0,0.1273,0.1285,0.1304,0.135,0.1367,0.1436,0.1446,0.1459,0.1518,0.1524,0.1579,0.1587,0.1594,0.1651,0.1659,0.1715,0.1654,0.1767,0.177,0.1773,0.1855,0.1865,0.1873,0,0,0,0,0,0.1268,0.1274,0.1304,0.1317,0.1386,0.1437,0.1449,0.1497,0.152,0.1545,0.1581,0.1587,0.1674,0.1655,0.1664,0.1722,0.1766,0.1769,0.1772,0.1851,0.1863,0.1873,0,0,0,0,0,0,0.1231,0.1283,0.1316,0.1341,0.14,0.1449,0.148,0.1517,0.1567,0.1586,0.1604,0.1615,0.1683,0.1683,0.1662,0.1763,0.1721,0.1726,0.1778,0.1789,0.1798,0.1827,0.1656,0,0,0,0,0,0.1233,0.1263,0.1317,0.1352,0.1374,0.1438,0.1472,0.1514,0.1559,0.1584,0.1628,0.1666,0.1698,0.1727,0.1755,0.1811,0.1814,0.1852,0.1861,0.1869,0.1897,0.194,0.1956,0.1784,0.1784,0.1784,0,0,0.1237,0.1271,0.1293,0.135,0.1397,0.1442,0.1459,0.1525,0.1578,0.1585,0.1673,0.1702,0.1717,0.1782,0.1813,0.1794,0.1914,0.1873,0.1879,0.1904,0.1945,0.1962,0.1977,0.1786,0.1786,0.1786,0,0,0.1242,0.1283,0.1303,0.1357,0.1436,0.1472,0.1498,0.1575,0.162,0.1702,0.1718,0.178,0.184,0.1867,0.1882,0.1953,0.1956,0.1967,0.2046,0.2087,0.2102,0.2115,0.2121,0.2134,0.1975,0.1975,0.1975,0,0.1247,0.1281,0.1323,0.1363,0.142,0.1487,0.1537,0.1587,0.1683,0.1725,0.1741,0.1863,0.188,0.1954,0.1988,0.1978,0.1993,0.2006,0.2101,0.2114,0.2126,0.2129,0.2142,0.198,0.1979,0.1979,0.1978,0,0.1274,0.1313,0.1332,0.1408,0.1471,0.153,0.1607,0.1674,0.1743,0.1802,0.1913,0.1958,0.2029,0.2049,0.205,0.2152,0.213,0.2104,0.2078,0.2149,0.2146,0.2159,0.1986,0.1985,0.1983,0.1982,0,0,0.1238,0.1328,0.1339,0.1389,0.1507,0.1558,0.1647,0.1736,0.1804,0.1912,0.2004,0.2093,0.2146,0.2167,0.219,0.2247,0.2339,0.2235,0.2235,0.2247,0.2423,0.2315,0.2318,0.2343,0.2346,0.2349,0.2379,0,0.1247,0.1298,0.1371,0.1465,0.1494,0.161,0.1685,0.1791,0.1883,0.1983,0.2062,0.2168,0.2178,0.2248,0.2302,0.2318,0.2381,0.2332,0.2347,0.2348,0.2249,0.2332,0.2359,0.2389,0.2391,0.2393,0.2395,0,0.1236,0.1273,0.1344,0.1472,0.1505,0.1595,0.1746,0.1844,0.1979,0.206,0.2183,0.2248,0.2355,0.2362,0.2451,0.2424,0.2456,0.2471,0.2471,0.2357,0.2265,0.2306,0.2417,0.2415,0.2414,0.2412,0.2411,0,0.1152,0.1257,0.1313,0.1367,0.1518,0.1601,0.1712,0.1864,0.1936,0.2143,0.2203,0.2341,0.2426,0.2479,0.2531,0.2504,0.2619,0.2555,0.2491,0.248,0.2528,0.2513,0.266,0.266,0.266,0.266,0.2659,0,0.1109,0.1157,0.1282,0.1328,0.1423,0.1575,0.1722,0.184,0.1989,0.2095,0.2253,0.234,0.2477,0.2546,0.2563,0.2564,0.2638,0.2532,0.25,0.2557,0.2546,0.2535,0.252,0.2661,0.266,0.266,0.266,0,0.0995,0.1084,0.1151,0.1316,0.1386,0.1467,0.1698,0.1773,0.1952,0.2089,0.216,0.2343,0.2475,0.2561,0.2673,0.2596,0.2612,0.2614,0.2682,0.2647,0.2425,0.2414,0.2488,0.2485,0.2483,0.248,0.2478,0,0.0934,0.0953,0.1116,0.1184,0.1276,0.1434,0.1528,0.1734,0.1824,0.2079,0.2108,0.2314,0.2441,0.2461,0.2591,0.262,0.2621,0.2585,0.2508,0.2456,0.2417,0.241,0.2403,0.2474,0.2474,0.2473,0.2472,0,0.0819,0.0888,0.0949,0.1057,0.1176,0.1296,0.1466,0.1495,0.1758,0.19,0.2039,0.2143,0.2304,0.2406,0.2493,0.2503,0.256,0.2556,0.2559,0.2487,0.244,0.2402,0.2398,0.2463,0.2464,0.2465,0.2466,0,0.0732,0.0739,0.0831,0.0931,0.1052,0.1136,0.1255,0.1397,0.1502,0.1782,0.1846,0.2081,0.2297,0.2351,0.2406,0.2435,0.2386,0.2277,0.2294,0.2305,0.2241,0.2154,0.2088,0,0,0,0,0,0.0622,0.0648,0.0717,0.0813,0.0913,0.1006,0.1194,0.1318,0.1556,0.1598,0.1719,0.1881,0.2031,0.2145,0.2141,0.2314,0.2376,0.2297,0.2252,0.2412,0.2423,0.2369,0,0,0,0,0,0,0.057,0.061,0.0656,0.0684,0.0744,0.0843,0.097,0.1135,0.1194,0.145,0.1543,0.1742,0.1909,0.2007,0.2092,0.2129,0.2058,0.2447,0.2442,0.2406,0.2415,0.2424,0.2373,0,0,0,0,0]},{"header":{"parameterUnit":"m.s-1","parameterCategory":2,"la1":30.2991,"la2":30.254,"lo1":-89.0895,"lo2":-89.0444,"dy":0.0017,"dx":0.0017,"nx":28,"ny":28,"refTime":"2023-07-31T21:00:00:Z","depth":"4","parameterNumber":3,"parameterNumberName":"V-component_of_CURRENTS"},"data":[0,0,0,0,0,0,0,0,0,0,0,0,0,0,0,0,0,0,0,0,0,0,0,0,0,0,0,0,0,0,0,0,0,0,0,0,0,0,0,0,0,0,0,0,0,0,0,0,0,0,0,0,0,0,0,0,0,0,0.0166,0.0166,0,0.0116,0.0116,0.0115,0.0075,0.0075,0.0074,0.0074,-0.0022,-0.0024,-0.0026,0,0,0,0,0,0,0,0,0,0,0,0,0,0.0136,0.0137,0.0166,0.0166,0.0165,0.0116,0.0116,0.0115,0.0075,0.0075,0.0074,0.0074,-0.0021,-0.0024,-0.0027,0,0,0,0,0,0,0,0,0,0,0,0,0,0.0124,0.0138,0.0166,0.0139,0.0136,0.0116,0.0115,0.0115,0.0075,0.0075,0.0074,0.0073,-0.0021,-0.0024,-0.0027,-0.0035,0,0,-0.0037,-0.0038,0,0,0,0,0,0,0,0,0.0125,0.0125,0.0144,0.0141,0.0138,0.0101,0.007,0.0062,0.0075,0.0098,0.0074,0.0073,0.0015,0.0009,0.0002,-0.0039,-0.0044,-0.0037,-0.0039,-0.0041,-0.0042,0,0,0,0,0,0,0,0.0126,0.0127,0.0146,0.0143,0.0139,0.0098,0.0097,0.0068,0.006,0.0096,0.0093,0.0088,0.0013,0.0005,-0.0001,-0.0045,-0.0037,-0.004,-0.0042,-0.0043,-0.0113,-0.0113,0,0,0,0,0,0,0.0138,0.0128,0.0148,0.0145,0.013,0.01,0.0098,0.0114,0.0061,0.0053,0.0088,0.0086,0.0011,0.0003,-0.0005,-0.0023,-0.0041,-0.0044,-0.0046,-0.0113,-0.0113,-0.0113,0,0,0,0,0,0,0.0138,0.0141,0.015,0.0134,0.0132,0.0102,0.0119,0.0113,0.0103,0.0056,0.0047,0.0084,0.001,-0.0,-0.0023,-0.0027,-0.0045,-0.0048,-0.0114,-0.0113,-0.0113,-0.0057,0,0,0,0,0,0,0.0138,0.0142,0.0165,0.0136,0.0133,0.0148,0.0119,0.0112,0.0101,0.0097,0.0049,0.004,0.0009,-0.0017,-0.0026,-0.0032,-0.0051,-0.0114,-0.0113,-0.0113,-0.0059,-0.0055,-0.0052,0,0,0,0,0,0.0137,0.0178,0.0167,0.0169,0.0165,0.0149,0.0144,0.0118,0.0101,0.0106,0.0073,0.0041,-0.0023,-0.0019,-0.003,-0.0037,-0.0114,-0.0113,-0.0113,-0.0061,-0.0056,-0.0052,0,0,0,0,0,0,0.0178,0.0177,0.0164,0.0203,0.0178,0.0142,0.0152,0.0123,0.0101,0.0097,0.0048,0.0037,0.0012,-0.0016,-0.0012,-0.0057,-0.0076,-0.0078,-0.0033,-0.0029,-0.0025,-0.0038,-0.0053,0,0,0,0,0,0.0198,0.0224,0.0202,0.0226,0.0226,0.0186,0.0178,0.0153,0.0125,0.0115,0.0081,0.0042,0.0006,-0.0013,-0.0044,-0.0064,-0.0117,-0.0077,-0.0073,-0.007,-0.0088,-0.0186,-0.0193,-0.0112,-0.0112,-0.0112,0,0,0.0209,0.0219,0.0227,0.0235,0.0219,0.0217,0.0181,0.0172,0.016,0.0107,0.0095,0.0056,0.0004,-0.0019,-0.0033,-0.0043,-0.011,-0.007,-0.0066,-0.0087,-0.0187,-0.0195,-0.0202,-0.0112,-0.0112,-0.0112,0,0,0.0243,0.0266,0.0292,0.0284,0.027,0.0247,0.0245,0.0212,0.0195,0.0175,0.0128,0.0085,0.0048,-0.0001,-0.003,-0.0027,-0.0087,-0.0031,-0.0025,-0.0119,-0.0127,-0.0135,-0.0167,-0.0179,-0.003,-0.003,-0.003,0,0.0258,0.029,0.0292,0.0312,0.0303,0.0263,0.0265,0.0249,0.0206,0.0184,0.0181,0.0087,0.0049,-0.0014,-0.0011,-0.0021,-0.0066,-0.0035,-0.0116,-0.0125,-0.0135,-0.0166,-0.018,-0.0027,-0.0027,-0.0028,-0.0028,0,0.0292,0.0322,0.0339,0.0351,0.0345,0.0342,0.0314,0.0302,0.0275,0.0238,0.0182,0.0126,0.006,0.0046,0.0019,-0.0063,-0.0066,-0.0099,-0.0128,-0.014,-0.0171,-0.0186,-0.0023,-0.0024,-0.0025,-0.0026,0,0,0.0307,0.0353,0.0359,0.0371,0.0361,0.0359,0.0349,0.0314,0.0298,0.0251,0.0206,0.0139,0.0091,0.0053,0.0004,-0.0075,-0.0155,-0.011,-0.0116,-0.0141,-0.0327,-0.0287,-0.0299,-0.0209,-0.0213,-0.0215,-0.0305,0,0.0323,0.0383,0.0385,0.0408,0.0429,0.0394,0.0387,0.0351,0.0317,0.0275,0.0186,0.0141,0.01,0.007,-0.0022,-0.0123,-0.0201,-0.0126,-0.0313,-0.0318,-0.0284,-0.0319,-0.0226,-0.0317,-0.0321,-0.0323,-0.0325,0,0.0343,0.0386,0.0429,0.0446,0.0449,0.045,0.0424,0.0411,0.0341,0.0316,0.0236,0.0169,0.0058,0.0022,-0.0175,-0.0125,-0.0229,-0.0308,-0.0314,-0.0318,-0.0309,-0.0317,-0.0353,-0.0351,-0.0349,-0.0347,-0.0345,0,0.0364,0.0405,0.0445,0.0452,0.0471,0.0469,0.0462,0.0419,0.0421,0.0339,0.0331,0.0176,0.0123,-0.0054,-0.02,-0.0202,-0.0414,-0.0438,-0.0499,-0.0495,-0.0527,-0.0518,-0.0608,-0.0608,-0.0608,-0.0607,-0.0607,0,0.0388,0.0419,0.0464,0.0497,0.0535,0.0511,0.0531,0.0511,0.0469,0.0477,0.0357,0.0327,0.0094,-0.0043,-0.0205,-0.0378,-0.042,-0.0513,-0.0536,-0.0491,-0.0478,-0.0534,-0.0525,-0.0611,-0.061,-0.0609,-0.0609,0,0.0422,0.0448,0.0503,0.0541,0.0563,0.059,0.0621,0.0627,0.059,0.0593,0.0573,0.0431,0.0258,0.0042,-0.0228,-0.0345,-0.0538,-0.0595,-0.0486,-0.0499,-0.0551,-0.0538,-0.0682,-0.0682,-0.0682,-0.0682,-0.0682,0,0.0458,0.0495,0.0571,0.0616,0.0645,0.0689,0.0724,0.0705,0.0718,0.0671,0.067,0.051,0.0397,0.0072,-0.0177,-0.0484,-0.0532,-0.0615,-0.064,-0.0561,-0.057,-0.0556,-0.0543,-0.0681,-0.0681,-0.0681,-0.0681,0,0.0526,0.0545,0.0601,0.0699,0.0755,0.0821,0.0863,0.0883,0.0855,0.0833,0.0759,0.0576,0.0382,0.0096,-0.0137,-0.0363,-0.0558,-0.0614,-0.0617,-0.0642,-0.0562,-0.0567,-0.0554,-0.0681,-0.0681,-0.0681,-0.0681,0,0.0576,0.0616,0.0682,0.0761,0.0847,0.0909,0.0931,0.0934,0.0938,0.0874,0.0853,0.063,0.0489,0.016,-0.0057,-0.0274,-0.0343,-0.0411,-0.0426,-0.0429,-0.0338,-0.0199,-0.0241,0,0,0,0,0,0.0606,0.0642,0.0733,0.0805,0.0892,0.0935,0.1001,0.1001,0.0986,0.0953,0.0901,0.072,0.039,0.0235,0.0022,-0.0076,-0.0391,-0.0332,-0.0478,-0.0678,-0.0678,-0.0613,0,0,0,0,0,0,0.0617,0.0692,0.073,0.0832,0.0884,0.0969,0.1013,0.1009,0.0978,0.094,0.0763,0.0675,0.0343,0.0509,0.0019,-0.005,-0.0168,-0.0493,-0.0497,-0.0677,-0.0678,-0.0678,-0.0612,0,0,0,0,0]}]]